Tracking 18957 objects as of 22-Jan-2018
HD Live streaming from Space Station
objects crossing your sky now

FLOCK 2EP-5

Track FLOCK 2EP-5 now!
10-day predictions
FLOCK 2EP-5 is classified as:


NORAD ID: 41567
Int'l Code: 1998-067JT
Perigee: 351.9 km
Apogee: 354.8 km
Inclination: 51.6 °
Period: 91.5 minutes
Semi major axis: 6724 km
RCS: Unknown
Launch date: November 20, 1998
Source: United States (US)
Launch site: ()
aabbcc
Your satellite tracking list
Your tracking list is empty




NASA's NSSDC Master Catalog

Two Line Element Set (TLE):
1 41567U 98067JR  18022.39470565  .00025368  00000-0  17472-3 0  9993
2 41567  51.6332 342.1350 0002196 262.0588  98.0162 15.74450331 94037
Source of the keplerian elements: AFSPC